User: anonymous   Login
Location: Fort Hays State University
(38.8712°N, 99.3432°W)
Time: 08:54:32
(UTC-05:00)
Language:

ALOS - Orbit

View from above orbital plane
View from above orbital plane
View from above satellite
View from above satellite

Ground track
Ground track

The orbit data is extracted from the following two-line orbital elements,

1 28931U 06002A   17173.95414224 +.00000040 +00000-0 +16561-4 0  9998
2 28931 097.8433 201.0217 0000880 047.6869 312.4413 14.62362025608304
Epoch (UTC): 22 June 2017 22:53:57
Eccentricity: 0.0000880
inclination: 97.8433°
perigee height: 685 km
apogee height: 686 km
right ascension of ascending node: 201.0217°
argument of perigee: 47.6869°
revolutions per day: 14.62362025
mean anomaly at epoch: 312.4413°
orbit number at epoch: 60830

The dashed part of the orbit path shows where the satellite is in the earth's shadow,  

DLR